Tracking 28126 objects as of 1-Oct-2023
HD Live streaming from Space Station
objects crossing your sky now

DELTA 1 R/B

Track DELTA 1 R/B now!
10-day predictions


NORAD ID: 9063
Int'l Code: 1976-077B
Perigee: 1,421.4 km
Apogee: 1,518.0 km
Inclination: 101.9 °
Period: 115.2 minutes
Semi major axis: 7840 km
RCS: 5.8014 m2 (large)
Launch date: July 29, 1976
Source: United States (US)
Launch site: AIR FORCE WESTERN TEST RANGE (AFWTR)

Note: This is a ROCKET BODY
Your satellite tracking list
Your tracking list is empty




NASA's NSSDC Master Catalog

Two Line Element Set (TLE):
1  9063U 76077B   23274.15361734 -.00000036  00000-0  61639-4 0  9992
2  9063 101.9277 247.4906 0061560 106.5250 265.3051 12.50465429195360
Source of the keplerian elements: AFSPC